Sterling, IL

6:28 AM CST on November 20, 2019 (GMT -0600)
Whiteside County-Bittorf

Weather History for KSQI - October, 2019

Change the Weather History Date:

Sunday, October 20, 2019

  Actual Average Record
Temperature  
Mean Temperature 58 °F -  
Max Temperature 68 °F 59 °F 84 °F (2003)
Min Temperature 48 °F 38 °F 26 °F (2002)
Degree Days  
Heating Degree Days 7    
Growing Degree Days 8 (Base 50)    
Moisture  
Dew Point 47 °F    
Average Humidity 80    
Maximum Humidity 100    
Minimum Humidity 37    
Precipitation  
Precipitation 0.00 in - - ()
Sea Level Pressure  
Sea Level Pressure 29.56 in    
Wind  
Wind Speed 4 mph ()    
Max Wind Speed 12 mph    
Max Gust Speed 17 mph    
Visibility 9.4 miles    
Events      
Averages and records for this station are not official NWS values.
T = Trace of Precipitation, MM = Missing Value Source: Averaged Metar Reports

Daily Weather History Graph

Daily Weather History Graph

Search for Another Location

Airport or City:

Astronomy

Oct. 20, 2019 Rise Set
Actual Time 7:16 AM CDT 6:09 PM CDT
Civil Twilight 6:48 AM CDT 6:38 PM CDT
Nautical Twilight 6:15 AM CDT 7:10 PM CDT
Astronomical Twilight 5:43 AM CDT 7:42 PM CDT
Moon 11:15 PM CDT 1:47 PM CDT
Length of Visible Light 11h 50m
Length of Day
10h 53m
Waning Gibbous, 59% of the Moon is Illuminated
Oct 20
Waning Gibbous
Oct 21
Last Quarter
Oct 27
New
Nov 4
First Quarter
Nov 12
Full

Hourly Weather History & Observations

Time (CDT) Temp. Dew Point Humidity Pressure Visibility Wind Dir Wind Speed Gust Speed Precip Events Conditions
12:33 AM 53.6 °F 51.8 °F 94% 29.80 in 9.0 mi West 4.6 mph - N/A   Overcast
12:56 AM 53.1 °F 51.1 °F 93% 29.40 in 10.0 mi West 3.5 mph - N/A   Overcast
1:56 AM 52.0 °F 50.0 °F 93% 29.42 in 10.0 mi WNW 8.1 mph - N/A   Overcast
2:56 AM 51.1 °F 48.9 °F 92% 29.43 in 10.0 mi NW 8.1 mph - N/A   Overcast
3:42 AM 50.0 °F 48.2 °F 94% 29.83 in 10.0 mi WNW 4.6 mph - N/A   Overcast
3:56 AM 50.0 °F 48.0 °F 93% 29.44 in 10.0 mi WNW 5.8 mph - N/A   Overcast
4:56 AM 50.0 °F 48.0 °F 93% 29.47 in 10.0 mi NNW 3.5 mph - N/A   Overcast
5:46 AM 48.2 °F 48.2 °F 100% 29.87 in 10.0 mi NW 3.5 mph - N/A   Overcast
5:56 AM 48.9 °F 48.0 °F 97% 29.48 in 10.0 mi Calm Calm - N/A   Overcast
6:56 AM 48.9 °F 48.0 °F 97% 29.50 in 10.0 mi NW 4.6 mph - N/A   Overcast
7:56 AM 48.0 °F 48.0 °F 100% 29.52 in 5.0 mi NE 4.6 mph - N/A   Overcast
8:56 AM 48.9 °F 48.0 °F 97% 29.54 in 6.0 mi Calm Calm - N/A   Overcast
9:56 AM 48.9 °F 48.9 °F 100% 29.55 in 8.0 mi NE 4.6 mph - N/A   Overcast
10:27 AM 50.0 °F 48.2 °F 94% 29.95 in 10.0 mi Calm Calm - N/A   Overcast
10:56 AM 51.1 °F 48.9 °F 92% 29.55 in 10.0 mi Calm Calm - N/A   Overcast
11:16 AM 53.6 °F 48.2 °F 82% 29.94 in 10.0 mi ESE 4.6 mph - N/A   Overcast
11:45 AM 57.2 °F 50.0 °F 77% 29.94 in 10.0 mi Calm Calm - N/A   Partly Cloudy
11:56 AM 57.9 °F 50.0 °F 75% 29.54 in 10.0 mi Calm Calm - N/A   Partly Cloudy
12:56 PM 62.1 °F 50.0 °F 65% 29.53 in 10.0 mi West 3.5 mph - N/A   Clear
1:56 PM 66.0 °F 45.0 °F 47% 29.50 in 10.0 mi SE 5.8 mph - N/A   Clear
2:56 PM 66.9 °F 41.0 °F 39% 29.48 in 10.0 mi East 9.2 mph 17.3 mph N/A   Clear
3:56 PM 68.0 °F 41.0 °F 37% 29.49 in 10.0 mi ESE 10.4 mph - N/A   Clear
4:56 PM 64.9 °F 37.9 °F 37% 29.48 in 10.0 mi ESE 11.5 mph - N/A   Clear
5:56 PM 61.0 °F 39.9 °F 46% 29.48 in 10.0 mi ESE 8.1 mph - N/A   Clear
6:56 PM 55.0 °F 42.1 °F 62% 29.47 in 10.0 mi East 6.9 mph - N/A   Clear
7:56 PM 53.1 °F 43.0 °F 69% 29.48 in 10.0 mi East 4.6 mph - N/A   Clear
8:56 PM 52.0 °F 45.0 °F 77% 29.48 in 10.0 mi East 3.5 mph - N/A   Clear
9:56 PM 52.0 °F 48.0 °F 86% 29.47 in 10.0 mi East 6.9 mph - N/A   Clear
10:56 PM 52.0 °F 50.0 °F 93% 29.46 in 9.0 mi East 4.6 mph - N/A   Scattered Clouds
11:56 PM 52.0 °F 50.0 °F 93% 29.41 in 6.0 mi East 9.2 mph - N/A   Overcast